Weather History for KGOO - August, 2013

Change the Weather History Date:

Saturday, August 17, 2013

  Actual Average (KBLU) Record (KBLU)
Temperature  
Mean Temperature 78 °F -  
Max Temperature 89 °F 75 °F 88 °F (1950)
Min Temperature 68 °F 56 °F 39 °F (1976)
Cooling Degree Days 14    
Growing Degree Days 28 (Base 50)    
Moisture  
Dew Point 40 °F    
Average Humidity 27    
Maximum Humidity 43    
Minimum Humidity 14    
Precipitation  
Precipitation 0.00 in - - ()
Sea Level Pressure  
Sea Level Pressure 30.04 in    
Wind  
Wind Speed 2 mph (West)    
Max Wind Speed 10 mph    
Max Gust Speed -    
Visibility 8 miles    
Events      
Averages and records for this station are not official NWS values.
T = Trace of Precipitation, MM = Missing Value Source: NWS Daily Summary

Daily Weather History Graph

Daily Weather History Graph

Search for Another Location

Airport or City:

Trip Planner

Search our weather history database for the weather conditions in past years. The results will help you decide how hot, cold, wet, or windy it might be!

Date:

Astronomy

Aug. 17, 2013 Rise Set
Actual Time 6:19 AM PDT 7:56 PM PDT
Civil Twilight 5:50 AM PDT 8:24 PM PDT
Nautical Twilight 5:16 AM PDT 8:58 PM PDT
Astronomical Twilight 4:39 AM PDT 9:34 PM PDT
Moon 5:15 PM PDT (8/17) 2:28 AM PDT (8/17)
Length of Visible Light 14h 33m
Length of Day
13h 36m
Waxing Gibbous, 85% of the Moon is Illuminated
Aug 17
Waxing Gibbous
Aug 20
Full
Aug 28
Last Quarter
Sep 5
New
Sep 12
First Quarter

Hourly Weather History & Observations

Time (PDT) Temp. Dew Point Humidity Pressure Visibility Wind Dir Wind Speed Gust Speed Precip Events Conditions
12:00 AM 73.4 °F 46.4 °F 38% 30.08 in 10.0 mi ESE 4.6 mph - N/A   Clear
12:20 AM 73.4 °F 46.4 °F 38% 30.08 in 10.0 mi Calm Calm - N/A   Clear
12:40 AM 73.4 °F 46.4 °F 38% 30.08 in 10.0 mi Calm Calm - N/A   Clear
1:00 AM 73.4 °F 44.6 °F 36% 30.08 in 10.0 mi Calm Calm - N/A   Clear
1:20 AM 71.6 °F 44.6 °F 38% 30.08 in 10.0 mi Calm Calm - N/A   Clear
1:40 AM 71.6 °F 46.4 °F 41% 30.07 in 10.0 mi Calm Calm - N/A   Clear
2:00 AM 71.6 °F 44.6 °F 38% 30.07 in 10.0 mi Calm Calm - N/A   Clear
2:20 AM 69.8 °F 44.6 °F 40% 30.07 in 10.0 mi Calm Calm - N/A   Clear
2:40 AM 71.6 °F 42.8 °F 35% 30.07 in 10.0 mi Calm Calm - N/A   Clear
3:00 AM 68.0 °F 44.6 °F 43% 30.07 in 10.0 mi Calm Calm - N/A   Clear
3:20 AM 69.8 °F 46.4 °F 43% 30.06 in 10.0 mi Calm Calm - N/A   Clear
3:40 AM 69.8 °F 46.4 °F 43% 30.06 in 10.0 mi Calm Calm - N/A   Clear
4:00 AM 69.8 °F 44.6 °F 40% 30.06 in 10.0 mi Calm Calm - N/A   Clear
4:20 AM 71.6 °F 41.0 °F 33% 30.06 in 5.0 mi Calm Calm - N/A   Clear
4:40 AM 71.6 °F 39.2 °F 31% 30.06 in 5.0 mi Calm Calm - N/A   Clear
5:00 AM 71.6 °F 37.4 °F 29% 30.06 in 4.0 mi Calm Calm - N/A   Clear
5:20 AM 71.6 °F 39.2 °F 31% 30.06 in 3.0 mi Calm Calm - N/A   Clear
5:40 AM 68.0 °F 39.2 °F 35% 30.06 in 4.0 mi Calm Calm - N/A   Clear
6:00 AM 68.0 °F 39.2 °F 35% 30.06 in 5.0 mi Calm Calm - N/A   Clear
6:20 AM 71.6 °F 37.4 °F 29% 30.07 in 5.0 mi Calm Calm - N/A   Clear
6:40 AM 69.8 °F 37.4 °F 31% 30.08 in 3.0 mi Calm Calm - N/A   Clear
7:00 AM 71.6 °F 35.6 °F 27% 30.08 in 4.0 mi ESE 3.5 mph - N/A   Clear
7:20 AM 73.4 °F 35.6 °F 25% 30.07 in 5.0 mi ESE 4.6 mph - N/A   Clear
7:40 AM 75.2 °F 35.6 °F 24% 30.08 in 5.0 mi ESE 3.5 mph - N/A   Clear
8:00 AM 75.2 °F 37.4 °F 25% 30.08 in 5.0 mi Calm Calm - N/A   Clear
8:20 AM 77.0 °F 37.4 °F 24% 30.09 in 6.0 mi Calm Calm - N/A   Clear
8:40 AM 77.0 °F 37.4 °F 24% 30.09 in 7.0 mi Calm Calm - N/A   Clear
8:55 AM 77.0 °F 35.6 °F 22% 30.09 in 6.0 mi Calm Calm - N/A   Clear
1:40 PM 87.8 °F 41.0 °F 19% 30.05 in 7.0 mi WSW 9.2 mph - N/A   Clear
2:00 PM 86.0 °F 42.8 °F 22% 30.05 in 8.0 mi West 9.2 mph - N/A   Clear
2:20 PM 86.0 °F 42.8 °F 22% 30.05 in 9.0 mi West 9.2 mph - N/A   Clear
2:40 PM 86.0 °F 41.0 °F 20% 30.04 in 9.0 mi West 6.9 mph - N/A   Clear
3:00 PM 86.0 °F 39.2 °F 19% 30.04 in 10.0 mi West 10.4 mph - N/A   Clear
3:20 PM 86.0 °F 37.4 °F 18% 30.03 in 10.0 mi West 8.1 mph - N/A   Clear
3:40 PM 87.8 °F 35.6 °F 16% 30.02 in 10.0 mi WSW 6.9 mph - N/A   Clear
4:00 PM 87.8 °F 32.0 °F 14% 30.02 in 10.0 mi SW 8.1 mph - N/A   Clear
4:20 PM 89.6 °F 33.8 °F 14% 30.01 in 10.0 mi WNW 9.2 mph - N/A   Clear
4:40 PM 87.8 °F 32.0 °F 14% 30.01 in 10.0 mi NW 6.9 mph - N/A   Clear
5:00 PM 86.0 °F 33.8 °F 15% 30.00 in 10.0 mi WNW 6.9 mph - N/A   Clear
5:20 PM 87.8 °F 32.0 °F 14% 30.00 in 10.0 mi West 5.8 mph - N/A   Clear
5:40 PM 87.8 °F 32.0 °F 14% 29.99 in 10.0 mi NW 5.8 mph - N/A   Clear
6:00 PM 86.0 °F 32.0 °F 14% 29.99 in 10.0 mi SW 4.6 mph - N/A   Clear
6:20 PM 86.0 °F 32.0 °F 14% 29.99 in 10.0 mi WNW 5.8 mph - N/A   Clear
6:40 PM 86.0 °F 35.6 °F 17% 29.98 in 10.0 mi WSW 3.5 mph - N/A   Clear
7:00 PM 84.2 °F 37.4 °F 19% 29.99 in 10.0 mi SW 4.6 mph - N/A   Clear
7:20 PM 84.2 °F 39.2 °F 20% 29.99 in 9.0 mi West 5.8 mph - N/A   Clear
7:40 PM 82.4 °F 39.2 °F 21% 29.99 in 10.0 mi Calm Calm - N/A   Clear
8:00 PM 80.6 °F 41.0 °F 24% 29.98 in 10.0 mi NW 4.6 mph - N/A   Clear
8:20 PM 78.8 °F 41.0 °F 26% 29.99 in 10.0 mi Calm Calm - N/A   Clear
8:40 PM 77.0 °F 41.0 °F 28% 29.99 in 10.0 mi Calm Calm - N/A   Clear
9:00 PM 77.0 °F 41.0 °F 28% 29.99 in 10.0 mi North 3.5 mph - N/A   Clear
9:20 PM 77.0 °F 41.0 °F 28% 30.00 in 10.0 mi Calm Calm - N/A   Clear
9:40 PM 75.2 °F 41.0 °F 29% 30.00 in 10.0 mi Calm Calm - N/A   Clear
10:00 PM 75.2 °F 41.0 °F 29% 30.01 in 10.0 mi Calm Calm - N/A   Clear
10:20 PM 75.2 °F 41.0 °F 29% 30.01 in 10.0 mi NNW 3.5 mph - N/A   Clear
10:40 PM 75.2 °F 41.0 °F 29% 30.01 in 10.0 mi Calm Calm - N/A   Clear
11:00 PM 75.2 °F 41.0 °F 29% 30.00 in 10.0 mi Calm Calm - N/A   Clear
11:20 PM 75.2 °F 42.8 °F 31% 30.00 in 10.0 mi NNE 3.5 mph - N/A   Clear
11:40 PM 75.2 °F 41.0 °F 29% 30.00 in 10.0 mi Calm Calm - N/A   Clear